Location: Borovka
(49.7741°N, 14.5280°E)
Time: 06:28:04
(UTC+00:00)

Landsat 7 - Pass Details

Date: 17 November 2025
Orbit: 680 x 682 km, 97.9° (Epoch: 17 December)

Event Time Altitude Azimuth Distance (km) Brightness Sun altitude
Rises 16:11:08 0° 154° (SSE) 3,033 7.0 -8.9°
Reaches altitude 10° 16:13:22 10° 151° (SSE) 2,122 6.2 -9.3°
Maximum altitude 16:17:57 62° 72° (ENE) 772 3.8 -10.0°
Drops below altitude 10° 16:22:33 10° 352° (N) 2,137 6.2 -10.7°
Sets 16:24:49 0° 349° (N) 3,056 7.1 -11.1°
